Time,TemperatureF,DewpointF,PressureIn,WindDirection,WindDirectionDegrees,WindSpeedMPH,WindSpeedGustMPH,Humidity,HourlyPrecipIn,Conditions,Clouds,dailyrainin,SoftwareType,DateUTC
2013-10-06 00:04:00,52.7,50.0,29.86,WNW,293,4.0,12.0,90,0.00,,,0.05,weatherlink.com 1.10,2013-10-06 05:04:00,
2013-10-06 00:20:00,52.3,50.0,29.85,WNW,294,6.0,11.0,90,0.00,,,0.05,weatherlink.com 1.10,2013-10-06 05:20:00,
2013-10-06 00:35:00,52.0,49.0,29.84,WSW,256,2.0,8.0,90,0.00,,,0.05,weatherlink.com 1.10,2013-10-06 05:35:00,
2013-10-06 00:50:00,51.7,49.0,29.84,WNW,284,3.0,6.0,91,0.00,,,0.05,weatherlink.com 1.10,2013-10-06 05:50:00,
2013-10-06 01:05:00,51.1,49.0,29.84,WNW,284,2.0,4.0,91,0.00,,,0.00,weatherlink.com 1.10,2013-10-06 06:05:00,
2013-10-06 01:20:00,50.5,49.0,29.84,West,281,1.0,4.0,93,0.00,,,0.00,weatherlink.com 1.10,2013-10-06 06:20:00,
2013-10-06 01:35:00,50.0,48.0,29.84,SW,233,3.0,3.0,93,0.00,,,0.00,weatherlink.com 1.10,2013-10-06 06:35:00,
2013-10-06 01:50:00,49.8,48.0,29.84,West,281,1.0,3.0,94,0.00,,,0.00,weatherlink.com 1.10,2013-10-06 06:50:00,
2013-10-06 02:05:00,49.6,48.0,29.84,WNW,283,1.0,4.0,94,0.00,,,0.00,weatherlink.com 1.10,2013-10-06 07:05:00,
2013-10-06 02:20:00,49.7,48.0,29.83,WSW,243,1.0,4.0,94,0.00,,,0.00,weatherlink.com 1.10,2013-10-06 07:20:00,
2013-10-06 02:35:00,49.6,48.0,29.84,West,259,1.0,4.0,94,0.00,,,0.00,weatherlink.com 1.10,2013-10-06 07:35:00,
2013-10-06 02:50:00,49.2,48.0,29.83,West,270,1.0,3.0,95,0.00,,,0.00,weatherlink.com 1.10,2013-10-06 07:50:00,
2013-10-06 03:05:00,48.9,48.0,29.84,West,269,0.0,2.0,95,0.00,,,0.00,weatherlink.com 1.10,2013-10-06 08:05:00,
2013-10-06 03:20:00,48.6,47.0,29.83,West,261,1.0,3.0,95,0.00,,,0.00,weatherlink.com 1.10,2013-10-06 08:20:00,
2013-10-06 03:35:00,48.5,47.0,29.83,WSW,252,1.0,4.0,95,0.00,,,0.00,weatherlink.com 1.10,2013-10-06 08:35:00,
2013-10-06 03:50:00,48.5,47.0,29.83,WNW,289,4.0,4.0,94,0.00,,,0.00,weatherlink.com 1.10,2013-10-06 08:50:00,
2013-10-06 04:05:00,48.4,47.0,29.82,West,268,0.0,3.0,93,0.00,,,0.00,weatherlink.com 1.10,2013-10-06 09:05:00,
2013-10-06 04:20:00,48.0,46.0,29.83,West,271,1.0,2.0,94,0.00,,,0.00,weatherlink.com 1.10,2013-10-06 09:20:00,
2013-10-06 04:35:00,47.7,46.0,29.83,WNW,291,2.0,4.0,94,0.00,,,0.00,weatherlink.com 1.10,2013-10-06 09:35:00,
2013-10-06 04:50:00,47.3,46.0,29.83,West,272,1.0,4.0,94,0.00,,,0.00,weatherlink.com 1.10,2013-10-06 09:50:00,
2013-10-06 05:05:00,47.2,46.0,29.83,WSW,238,2.0,4.0,94,0.01,,,0.01,weatherlink.com 1.10,2013-10-06 10:05:00,
2013-10-06 05:20:00,47.1,46.0,29.82,WSW,240,4.0,4.0,94,0.01,,,0.01,weatherlink.com 1.10,2013-10-06 10:20:00,
2013-10-06 05:35:00,46.9,45.0,29.83,NW,309,0.0,3.0,94,0.01,,,0.01,weatherlink.com 1.10,2013-10-06 10:35:00,
2013-10-06 05:50:00,46.7,45.0,29.83,West,263,0.0,4.0,94,0.01,,,0.01,weatherlink.com 1.10,2013-10-06 10:50:00,
2013-10-06 06:05:00,46.5,45.0,29.83,WNW,291,1.0,4.0,95,0.00,,,0.01,weatherlink.com 1.10,2013-10-06 11:05:00,
2013-10-06 06:20:00,46.2,45.0,29.83,West,259,0.0,2.0,95,0.00,,,0.01,weatherlink.com 1.10,2013-10-06 11:20:00,
2013-10-06 06:35:00,46.1,45.0,29.83,WNW,288,0.0,4.0,95,0.00,,,0.01,weatherlink.com 1.10,2013-10-06 11:35:00,
2013-10-06 06:50:00,45.8,45.0,29.82,West,264,1.0,4.0,95,0.00,,,0.01,weatherlink.com 1.10,2013-10-06 11:50:00,
2013-10-06 07:05:00,45.4,44.0,29.83,WSW,246,0.0,1.0,95,0.00,,,0.01,weatherlink.com 1.10,2013-10-06 12:05:00,
2013-10-06 07:20:00,45.3,44.0,29.83,WNW,299,0.0,4.0,96,0.00,,,0.01,weatherlink.com 1.10,2013-10-06 12:20:00,
2013-10-06 07:35:00,45.3,44.0,29.83,WSW,242,1.0,4.0,96,0.00,,,0.01,weatherlink.com 1.10,2013-10-06 12:35:00,
2013-10-06 07:50:00,45.6,45.0,29.82,WSW,238,1.0,3.0,97,0.00,,,0.01,weatherlink.com 1.10,2013-10-06 12:50:00,
2013-10-06 08:05:00,46.0,45.0,29.83,West,270,2.0,8.0,96,0.00,,,0.01,weatherlink.com 1.10,2013-10-06 13:05:00,
2013-10-06 08:21:00,46.9,45.0,29.83,WSW,252,6.0,9.0,93,0.00,,,0.01,weatherlink.com 1.10,2013-10-06 13:21:00,
2013-10-06 08:36:00,47.3,44.0,29.83,WSW,257,6.0,12.0,88,0.00,,,0.01,weatherlink.com 1.10,2013-10-06 13:36:00,
2013-10-06 08:51:00,47.6,44.0,29.83,NW,309,4.0,12.0,87,0.00,,,0.01,weatherlink.com 1.10,2013-10-06 13:51:00,
2013-10-06 09:06:00,47.8,43.0,29.83,WSW,250,2.0,13.0,84,0.00,,,0.01,weatherlink.com 1.10,2013-10-06 14:06:00,
2013-10-06 09:21:00,47.8,43.0,29.83,West,276,8.0,11.0,83,0.00,,,0.01,weatherlink.com 1.10,2013-10-06 14:21:00,
2013-10-06 09:36:00,48.3,42.0,29.83,West,268,4.0,13.0,79,0.00,,,0.01,weatherlink.com 1.10,2013-10-06 14:36:00,
2013-10-06 09:51:00,48.7,41.0,29.83,SW,221,10.0,16.0,75,0.00,,,0.01,weatherlink.com 1.10,2013-10-06 14:51:00,
2013-10-06 10:06:00,48.9,42.0,29.83,WSW,241,4.0,11.0,78,0.00,,,0.01,weatherlink.com 1.10,2013-10-06 15:06:00,
2013-10-06 10:21:00,48.8,41.0,29.84,WSW,238,3.0,14.0,74,0.00,,,0.01,weatherlink.com 1.10,2013-10-06 15:21:00,
2013-10-06 10:36:00,48.5,39.0,29.84,West,264,8.0,15.0,71,0.00,,,0.01,weatherlink.com 1.10,2013-10-06 15:36:00,
2013-10-06 10:51:00,48.2,40.0,29.84,NW,316,4.0,15.0,72,0.00,,,0.01,weatherlink.com 1.10,2013-10-06 15:51:00,
2013-10-06 11:06:00,47.9,40.0,29.84,WNW,302,6.0,14.0,74,0.00,,,0.01,weatherlink.com 1.10,2013-10-06 16:06:00,
2013-10-06 11:21:00,48.2,41.0,29.85,WSW,253,10.0,14.0,75,0.00,,,0.01,weatherlink.com 1.10,2013-10-06 16:21:00,
2013-10-06 11:36:00,48.8,39.0,29.85,West,276,6.0,16.0,69,0.00,,,0.01,weatherlink.com 1.10,2013-10-06 16:36:00,
2013-10-06 11:51:00,49.0,39.0,29.84,WSW,243,9.0,17.0,69,0.00,,,0.01,weatherlink.com 1.10,2013-10-06 16:51:00,
2013-10-06 12:06:00,49.2,40.0,29.85,West,280,5.0,17.0,70,0.00,,,0.01,weatherlink.com 1.10,2013-10-06 17:06:00,
2013-10-06 12:21:00,49.6,41.0,29.84,WNW,291,12.0,15.0,71,0.00,,,0.01,weatherlink.com 1.10,2013-10-06 17:21:00,
2013-10-06 12:36:00,49.3,40.0,29.83,WNW,301,3.0,15.0,71,0.00,,,0.01,weatherlink.com 1.10,2013-10-06 17:36:00,
2013-10-06 12:51:00,49.5,40.0,29.84,WNW,294,5.0,17.0,70,0.00,,,0.01,weatherlink.com 1.10,2013-10-06 17:51:00,
2013-10-06 13:06:00,49.7,41.0,29.83,West,259,3.0,14.0,72,0.00,,,0.01,weatherlink.com 1.10,2013-10-06 18:06:00,
2013-10-06 13:21:00,50.4,40.0,29.83,WNW,302,8.0,18.0,68,0.00,,,0.01,weatherlink.com 1.10,2013-10-06 18:21:00,
2013-10-06 13:36:00,51.1,41.0,29.82,WNW,297,6.0,17.0,68,0.00,,,0.01,weatherlink.com 1.10,2013-10-06 18:36:00,
2013-10-06 13:51:00,50.9,41.0,29.83,WNW,295,10.0,14.0,69,0.00,,,0.01,weatherlink.com 1.10,2013-10-06 18:51:00,
2013-10-06 14:06:00,50.7,42.0,29.83,West,264,3.0,13.0,71,0.00,,,0.01,weatherlink.com 1.10,2013-10-06 19:06:00,
2013-10-06 14:21:00,53.3,40.0,29.83,NW,321,5.0,17.0,62,0.00,,,0.01,weatherlink.com 1.10,2013-10-06 19:21:00,
2013-10-06 14:36:00,52.0,40.0,29.82,NW,314,8.0,17.0,64,0.00,,,0.01,weatherlink.com 1.10,2013-10-06 19:36:00,
2013-10-06 14:51:00,51.8,41.0,29.82,West,278,12.0,19.0,66,0.00,,,0.01,weatherlink.com 1.10,2013-10-06 19:51:00,
2013-10-06 15:06:00,51.7,41.0,29.82,NW,307,10.0,17.0,66,0.00,,,0.01,weatherlink.com 1.10,2013-10-06 20:06:00,
2013-10-06 15:21:00,51.1,41.0,29.82,WNW,296,15.0,19.0,69,0.00,,,0.01,weatherlink.com 1.10,2013-10-06 20:21:00,
2013-10-06 15:36:00,51.2,41.0,29.82,NW,322,3.0,20.0,68,0.00,,,0.01,weatherlink.com 1.10,2013-10-06 20:36:00,
2013-10-06 15:51:00,51.4,41.0,29.82,WSW,250,6.0,19.0,68,0.00,,,0.01,weatherlink.com 1.10,2013-10-06 20:51:00,
2013-10-06 16:06:00,52.1,41.0,29.82,WSW,255,6.0,16.0,67,0.00,,,0.01,weatherlink.com 1.10,2013-10-06 21:06:00,
2013-10-06 16:21:00,51.6,41.0,29.83,West,260,8.0,20.0,68,0.00,,,0.01,weatherlink.com 1.10,2013-10-06 21:21:00,
2013-10-06 16:36:00,51.7,42.0,29.84,WNW,287,7.0,18.0,69,0.00,,,0.01,weatherlink.com 1.10,2013-10-06 21:36:00,
2013-10-06 16:51:00,52.0,42.0,29.84,WSW,243,5.0,12.0,69,0.00,,,0.01,weatherlink.com 1.10,2013-10-06 21:51:00,
2013-10-06 17:06:00,52.2,43.0,29.84,West,270,2.0,15.0,71,0.00,,,0.01,weatherlink.com 1.10,2013-10-06 22:06:00,
2013-10-06 17:21:00,52.1,43.0,29.85,West,262,3.0,11.0,70,0.00,,,0.01,weatherlink.com 1.10,2013-10-06 22:21:00,
2013-10-06 17:36:00,52.0,42.0,29.86,West,259,7.0,17.0,68,0.00,,,0.01,weatherlink.com 1.10,2013-10-06 22:36:00,
2013-10-06 17:51:00,51.6,42.0,29.86,WNW,285,11.0,19.0,71,0.00,,,0.01,weatherlink.com 1.10,2013-10-06 22:51:00,
2013-10-06 18:06:00,51.1,43.0,29.86,West,280,4.0,12.0,74,0.00,,,0.01,weatherlink.com 1.10,2013-10-06 23:06:00,
2013-10-06 18:21:00,50.6,44.0,29.86,WNW,288,1.0,7.0,77,0.00,,,0.01,weatherlink.com 1.10,2013-10-06 23:21:00,
2013-10-06 18:36:00,50.4,43.0,29.86,WNW,288,3.0,7.0,77,0.00,,,0.01,weatherlink.com 1.10,2013-10-06 23:36:00,
2013-10-06 18:51:00,50.4,43.0,29.86,WSW,242,3.0,6.0,77,0.00,,,0.01,weatherlink.com 1.10,2013-10-06 23:51:00,
2013-10-06 19:06:00,50.5,43.0,29.86,WNW,288,4.0,8.0,76,0.00,,,0.01,weatherlink.com 1.10,2013-10-07 00:06:00,
2013-10-06 19:21:00,50.5,44.0,29.87,SSW,212,2.0,8.0,77,0.00,,,0.01,weatherlink.com 1.10,2013-10-07 00:21:00,
2013-10-06 19:36:00,50.3,43.0,29.86,WNW,292,4.0,7.0,77,0.00,,,0.01,weatherlink.com 1.10,2013-10-07 00:36:00,
2013-10-06 19:51:00,50.4,44.0,29.86,West,272,3.0,10.0,78,0.00,,,0.01,weatherlink.com 1.10,2013-10-07 00:51:00,
2013-10-06 20:06:00,50.8,44.0,29.86,West,272,4.0,11.0,76,0.00,,,0.01,weatherlink.com 1.10,2013-10-07 01:06:00,
2013-10-06 20:21:00,50.8,44.0,29.86,West,259,3.0,9.0,77,0.00,,,0.01,weatherlink.com 1.10,2013-10-07 01:21:00,
2013-10-06 20:36:00,50.7,44.0,29.86,SW,215,4.0,9.0,77,0.00,,,0.01,weatherlink.com 1.10,2013-10-07 01:36:00,
2013-10-06 20:51:00,50.7,44.0,29.87,West,280,5.0,10.0,79,0.00,,,0.01,weatherlink.com 1.10,2013-10-07 01:51:00,
2013-10-06 21:06:00,50.1,45.0,29.87,WNW,299,6.0,12.0,83,0.01,,,0.02,weatherlink.com 1.10,2013-10-07 02:06:00,
2013-10-06 21:21:00,49.0,46.0,29.87,West,274,5.0,15.0,88,0.01,,,0.02,weatherlink.com 1.10,2013-10-07 02:21:00,
2013-10-06 21:36:00,48.6,46.0,29.87,WNW,288,3.0,11.0,91,0.01,,,0.02,weatherlink.com 1.10,2013-10-07 02:36:00,
2013-10-06 21:52:00,48.5,47.0,29.87,WSW,245,7.0,10.0,93,0.01,,,0.02,weatherlink.com 1.10,2013-10-07 02:52:00,
2013-10-06 22:07:00,48.5,47.0,29.88,WNW,285,4.0,9.0,93,0.00,,,0.02,weatherlink.com 1.10,2013-10-07 03:07:00,
2013-10-06 22:22:00,48.7,47.0,29.88,West,273,9.0,12.0,93,0.00,,,0.02,weatherlink.com 1.10,2013-10-07 03:22:00,
2013-10-06 22:37:00,48.8,47.0,29.87,SW,236,2.0,14.0,92,0.00,,,0.02,weatherlink.com 1.10,2013-10-07 03:37:00,
2013-10-06 22:52:00,48.8,47.0,29.87,West,274,6.0,13.0,92,0.00,,,0.02,weatherlink.com 1.10,2013-10-07 03:52:00,
2013-10-06 23:07:00,48.9,47.0,29.88,West,273,5.0,12.0,92,0.00,,,0.02,weatherlink.com 1.10,2013-10-07 04:07:00,
2013-10-06 23:22:00,49.2,47.0,29.88,West,265,5.0,16.0,92,0.00,,,0.02,weatherlink.com 1.10,2013-10-07 04:22:00,
2013-10-06 23:37:00,49.1,47.0,29.88,WNW,290,7.0,11.0,91,0.00,,,0.02,weatherlink.com 1.10,2013-10-07 04:37:00,
2013-10-06 23:52:00,49.1,47.0,29.88,NW,311,7.0,11.0,91,0.00,,,0.02,weatherlink.com 1.10,2013-10-07 04:52:00,